Погода в Карачаевске

Россия / Карачаево-Черкесская Республика     43°46′23″N   41°54′51″E
темп.,
°C
ветер,
м/с
пор.,
м/с
влажн.,
%
обл.,
%
осадки,
мм/ч
давл.,
гПа
погр.,
м
19 апреля, пн
пн1900:00+9ююв2381100 0.1 101761
03:00+8ююв358871 0.6 1016143
06:00+8ююв2386100 0.1 101671
09:00+10ссв128465 1.0 1016230
12:00+16зюз2554100 0.0 10131344
15:00+18зюз2643100 0.3 10121964
18:00+13зсз027181 0.8 1013138
21:00+10ююв2280100 0.8 101535
20 апреля, вт
вт2000:00+8ююв3478100 0.0 101388
03:00+9юв3678100 0.0 1011176
06:00+9юв4674100 0.0 1010106
09:00+16ююв41050100 0.0 1006799
12:00+17ю61149100 0.5 10061283
15:00+19ююв41143100 1.1 10051720
18:00+15ю126217 0.1 1007170
21:00+10вюв01895 0.2 101116
21 апреля, ср
ср2100:00+7ююв1197100 0.4 101335
03:00+7с129679 0.9 101384
06:00+5с2394100 0.7 1016311
09:00+6ссз2287100 0.8 1017386
12:00+8ссз218287 0.3 1016624
15:00+7ссз2286100 0.5 1017559
18:00+5ссз2293100 0.1 1019305
21:00+5сз1296100 0.1 1021210
22 апреля, чт
чт2200:00+5зсз0095100 0.0 1020162
03:00+5з1198100 2.1 1020176
06:00+4ююв1296100 5.0 1021150
09:00+6юв0186100 6.4 1021389
12:00+8с2280100 0.4 1020920
15:00+7ссз1186100 1.1 1020882
18:00+6св1193100 2.9 1021264
21:00+5вюв1295100 4.6 1023131
23 апреля, пт
пт2300:00+5сз1197100 0.6 1023239
03:00+5юз1195100 1.4 1023168
06:00+3ююв129370 0.3 1024147
09:00+7вюв117136 0.3 1023789
12:00+10ссз325774 1.2 10211577
15:00+10ссз2364100 3.4 10211224
18:00+8сз127776 1.6 1022428
21:00+4ююв11928 1.8 102412